Total_Precipitation_Accumulation
0.02 0.04 0.06 0.06 0.06 0.04 0.04 0.05 0.11 0.08 0.10 0.10 0.04 0.02 0.02 0.03 0.04 0.04 0.03 0.06 0.05 0.06 0.08 0.11 0.14 0.18 0.22 0.22 0.24 0.28 0.39 0.56 0.72 0.82 0.68 0.47 0.36 0.31 0.29 0.34 0.41 0.52 0.63 0.71
0.01 0.03 0.04 0.05 0.06 0.05 0.03 0.02 0.02 0.03 0.05 0.03 0.03 0.03 0.03 0.03 0.04 0.03 0.03 0.04 0.05 0.06 0.10 0.12 0.13 0.14 0.15 0.17 0.19 0.24 0.32 0.38 0.49 0.54 0.46 0.32 0.20 0.16 0.20 0.28 0.37 0.45 0.52 0.58
0.01 0.03 0.03 0.07 0.07 0.04 0.03 0.03 0.04 0.05 0.06 0.04 0.05 0.05 0.05 0.05 0.04 0.03 0.02 0.02 0.01 0.02 0.03 0.04 0.07 0.08 0.08 0.10 0.16 0.27 0.35 0.35 0.41 0.45 0.40 0.28 0.16 0.15 0.19 0.26 0.32 0.38 0.40 0.44
0.01 0.03 0.08 0.07 0.04 0.04 0.04 0.05 0.05 0.06 0.06 0.06 0.07 0.06 0.06 0.06 0.04 0.03 0.02 0.01 0.01 0.01 0.02 0.02 0.03 0.03 0.04 0.08 0.16 0.25 0.31 0.32 0.41 0.49 0.45 0.36 0.29 0.27 0.29 0.34 0.37 0.39 0.38 0.39
0.05 0.04 0.06 0.06 0.06 0.07 0.08 0.07 0.07 0.08 0.08 0.08 0.07 0.05 0.04 0.03 0.02 0.01 0.01 0.01 0.02 0.02 0.03 0.03 0.04 0.04 0.05 0.08 0.16 0.23 0.29 0.35 0.41 0.49 0.51 0.45 0.43 0.43 0.45 0.45 0.44 0.43 0.41 0.41
0.05 0.07 0.11 0.09 0.11 0.11 0.09 0.17 0.14 0.10 0.07 0.04 0.03 0.05 0.02 0.01 0.01 0.01 0.01 0.01 0.02 0.02 0.03 0.04 0.05 0.08 0.12 0.14 0.18 0.26 0.32 0.38 0.44 0.54 0.61 0.56 0.55 0.56 0.56 0.58 0.53 0.49 0.46 0.49
0.08 0.12 0.13 0.12 0.09 0.07 0.16 0.22 0.09 0.04 0.03 0.03 0.06 0.09 0.05 0.02 0.01 0.01 0.01 0.02 0.03 0.04 0.05 0.06 0.09 0.14 0.19 0.19 0.22 0.26 0.31 0.36 0.46 0.61 0.68 0.67 0.71 0.74 0.71 0.67 0.66 0.66 0.61 0.60
0.12 0.19 0.20 0.13 0.09 0.10 0.12 0.07 0.05 0.04 0.04 0.04 0.04 0.03 0.03 0.02 0.01 0.01 0.02 0.03 0.04 0.05 0.08 0.11 0.15 0.22 0.27 0.29 0.29 0.30 0.34 0.41 0.53 0.61 0.57 0.56 0.74 0.82 0.83 0.82 0.79 0.79 0.78 0.72
0.13 0.19 0.14 0.11 0.11 0.12 0.12 0.10 0.07 0.06 0.03 0.03 0.03 0.03 0.03 0.03 0.03 0.03 0.04 0.05 0.06 0.10 0.13 0.17 0.25 0.34 0.43 0.43 0.42 0.40 0.42 0.47 0.55 0.58 0.64 0.74 0.81 0.84 0.88 0.91 0.87 0.82 0.83 0.82
0.10 0.09 0.10 0.11 0.11 0.08 0.07 0.06 0.03 0.02 0.02 0.03 0.05 0.05 0.06 0.05 0.05 0.05 0.05 0.06 0.08 0.11 0.18 0.26 0.37 0.47 0.56 0.56 0.54 0.52 0.49 0.49 0.52 0.58 0.65 0.79 0.94 0.94 0.90 0.89 0.91 0.91 0.88 0.85
0.10 0.11 0.09 0.11 0.12 0.06 0.02 0.01 0.02 0.02 0.03 0.04 0.06 0.07 0.07 0.07 0.07 0.07 0.06 0.06 0.07 0.14 0.24 0.34 0.47 0.58 0.60 0.61 0.64 0.65 0.60 0.55 0.54 0.59 0.68 0.81 0.90 0.97 0.90 0.88 0.76 0.77 0.79 0.81
0.13 0.12 0.11 0.11 0.08 0.05 0.03 0.03 0.03 0.04 0.04 0.04 0.05 0.07 0.07 0.07 0.08 0.08 0.07 0.08 0.13 0.20 0.27 0.33 0.45 0.60 0.66 0.69 0.74 0.79 0.77 0.71 0.68 0.70 0.75 0.79 0.86 0.86 0.73 0.64 0.53 0.49 0.49 0.52
0.08 0.06 0.07 0.08 0.06 0.05 0.05 0.05 0.04 0.04 0.04 0.05 0.05 0.06 0.07 0.07 0.07 0.07 0.08 0.11 0.16 0.22 0.26 0.31 0.40 0.51 0.61 0.75 0.85 0.90 0.89 0.86 0.84 0.78 0.80 0.85 0.90 0.95 0.93 0.77 0.62 0.51 0.42 0.36
0.06 0.06 0.07 0.06 0.05 0.03 0.03 0.03 0.03 0.04 0.05 0.06 0.05 0.06 0.06 0.07 0.08 0.09 0.12 0.14 0.16 0.20 0.26 0.34 0.44 0.51 0.59 0.75 0.86 0.90 0.91 0.89 0.88 0.86 0.84 0.87 0.90 0.92 0.98 1.02 0.93 0.77 0.57 0.43
0.07 0.07 0.07 0.05 0.03 0.03 0.04 0.04 0.04 0.05 0.06 0.06 0.06 0.06 0.07 0.08 0.11 0.13 0.14 0.17 0.21 0.24 0.29 0.39 0.49 0.56 0.68 0.81 0.88 0.89 0.89 0.87 0.83 0.84 0.85 0.84 0.86 0.87 0.88 0.96 0.97 0.92 0.79 0.61
0.06 0.06 0.06 0.05 0.04 0.04 0.06 0.06 0.07 0.08 0.08 0.08 0.08 0.08 0.09 0.10 0.11 0.14 0.16 0.21 0.31 0.35 0.41 0.52 0.59 0.63 0.76 0.89 0.96 0.93 0.90 0.82 0.76 0.76 0.80 0.81 0.83 0.86 0.85 0.91 0.93 0.94 0.86 0.71
0.08 0.07 0.06 0.05 0.06 0.08 0.09 0.09 0.10 0.10 0.10 0.10 0.10 0.10 0.10 0.12 0.16 0.20 0.23 0.26 0.33 0.39 0.48 0.62 0.65 0.66 0.79 0.93 1.02 1.00 0.92 0.82 0.69 0.68 0.71 0.76 0.82 0.84 0.83 0.85 0.86 0.89 0.79 0.59
0.07 0.07 0.07 0.07 0.09 0.10 0.11 0.12 0.13 0.14 0.15 0.15 0.15 0.15 0.18 0.25 0.34 0.40 0.41 0.42 0.45 0.43 0.46 0.58 0.63 0.69 0.77 0.88 0.96 0.99 0.97 0.89 0.77 0.66 0.64 0.70 0.76 0.80 0.82 0.80 0.79 0.80 0.72 0.53
0.07 0.08 0.09 0.13 0.18 0.19 0.19 0.19 0.20 0.21 0.22 0.21 0.22 0.25 0.30 0.37 0.49 0.57 0.59 0.62 0.68 0.66 0.58 0.56 0.61 0.64 0.73 0.79 0.84 0.93 0.90 0.84 0.74 0.58 0.57 0.63 0.70 0.79 0.79 0.73 0.75 0.74 0.65 0.53
0.06 0.06 0.07 0.16 0.29 0.34 0.34 0.33 0.33 0.32 0.30 0.29 0.31 0.35 0.41 0.47 0.57 0.68 0.71 0.68 0.69 0.75 0.70 0.62 0.58 0.61 0.65 0.70 0.73 0.78 0.76 0.76 0.73 0.55 0.52 0.65 0.72 0.77 0.74 0.66 0.68 0.65 0.54 0.49
0.03 0.03 0.04 0.07 0.14 0.22 0.27 0.28 0.29 0.33 0.34 0.38 0.48 0.58 0.66 0.64 0.67 0.79 0.89 0.79 0.65 0.69 0.67 0.60 0.53 0.54 0.57 0.67 0.71 0.73 0.71 0.69 0.72 0.61 0.53 0.61 0.70 0.73 0.69 0.62 0.57 0.50 0.42 0.41
0.02 0.03 0.05 0.07 0.08 0.09 0.11 0.13 0.20 0.30 0.38 0.43 0.50 0.63 0.77 0.83 0.88 0.88 0.81 0.79 0.72 0.71 0.64 0.56 0.50 0.48 0.48 0.55 0.66 0.70 0.69 0.67 0.70 0.67 0.60 0.60 0.66 0.68 0.64 0.54 0.46 0.38 0.33 0.32
0.01 0.02 0.03 0.03 0.04 0.06 0.08 0.11 0.17 0.27 0.37 0.44 0.53 0.72 0.88 0.93 1.02 1.16 0.98 0.72 0.67 0.68 0.63 0.53 0.49 0.45 0.41 0.41 0.54 0.63 0.63 0.67 0.70 0.69 0.64 0.58 0.54 0.54 0.52 0.44 0.37 0.32 0.31 0.29
0.02 0.02 0.02 0.02 0.05 0.07 0.11 0.14 0.18 0.25 0.34 0.41 0.49 0.66 0.88 1.04 1.00 0.91 0.86 0.74 0.64 0.58 0.56 0.50 0.41 0.39 0.38 0.35 0.43 0.52 0.56 0.60 0.58 0.55 0.52 0.47 0.47 0.48 0.42 0.36 0.31 0.27 0.28 0.28
0.03 0.03 0.04 0.05 0.10 0.17 0.24 0.30 0.34 0.38 0.46 0.49 0.50 0.56 0.67 0.90 1.06 0.89 0.70 0.64 0.60 0.52 0.51 0.50 0.43 0.38 0.34 0.31 0.33 0.39 0.45 0.48 0.47 0.45 0.42 0.41 0.40 0.38 0.32 0.27 0.23 0.20 0.22 0.24
0.04 0.05 0.06 0.09 0.16 0.27 0.40 0.52 0.61 0.65 0.74 0.79 0.70 0.64 0.65 0.72 0.82 0.81 0.68 0.58 0.53 0.51 0.46 0.45 0.43 0.38 0.33 0.31 0.28 0.32 0.38 0.44 0.45 0.42 0.37 0.38 0.34 0.30 0.27 0.24 0.18 0.16 0.16 0.16
0.07 0.07 0.09 0.13 0.20 0.32 0.48 0.63 0.76 0.85 0.93 1.01 0.96 0.81 0.75 0.72 0.75 0.74 0.67 0.59 0.55 0.54 0.51 0.47 0.45 0.42 0.39 0.35 0.30 0.29 0.35 0.41 0.43 0.42 0.39 0.38 0.39 0.35 0.25 0.19 0.16 0.12 0.11 0.10